Weather Roundup
Issued by NWS

Home | Current Version | Previous Version | Graphics & Text | Print | Product List | Glossary Off
Versions: 1 2 3 4 5 6 7 8 9 10 11 12 13 14 15 16 17 18 19 20 21 22 23 24 25 26 27 28 29 30 31 32 33 34 35 36 37 38 39 40 41 42 43 44 45 46 47 48 49 50

000
NZUS93 KARX 171859
HRRWXR

CURRENT HOURLY OBSERVATIONS ACROSS
MUCH OF THE UPPER MISSISSIPPI VALLEY
NATIONAL WEATHER SERVICE LA CROSSE WI
100 PM CST TUE JAN 17 2017


...SOUTHEAST MINNESOTA...


CITY           SKY/WX    TMP DP  RH WIND       PRES   REMARKS
ROCHESTER      FOG       32  32 100 NW14      29.91S VSB 1/4 WCI  22
ROCHESTER/MAYO CLOUDY    33  33 100 NW9       29.92S WCI  25
WINONA         RAIN      34  34 100 NW5       29.92S WCI  30
AUSTIN         FOG       32  30  93 NW3       29.93S VSB 3/4
ALBERT LEA     FOG       32  32 100 NW3       29.95S VSB 3/4
DODGE CENTER   FOG       32  32 100 CALM      29.92S VSB 3/4
PRESTON        CLOUDY    32  31  98 NW7       29.91S FOG     WCI  26
OWATONNA       CLOUDY    32  28  86 NW3       29.96R FOG
FARIBAULT        N/A     34  30  86 NW5       29.96S FOG     WCI  30
$$

...ELSEWHERE IN MINNESOTA...


CITY           SKY/WX    TMP DP  RH WIND       PRES   REMARKS
MINNEAPOLIS    PTSUNNY   35  29  78 NW7       29.96F WCI  29
INTNL FALLS    CLOUDY    26  14  60 SW6       29.86F WCI  19
DULUTH         MOSUNNY   32  29  88 CALM      29.90S
RED WING       CLOUDY    36  30  80 NW5       29.93S FOG     WCI  32
REDWOOD FALLS  CLOUDY    25  19  78 NW5       30.00F WCI  19
MANKATO        FOG       29  28  96 W8        29.98F VSB 1/2 WCI  21
WORTHINGTON    SNOW      29  27  92 SW10      29.99F VSB 1/2 WCI  20
FAIRMONT       CLOUDY    30  29  96 W13       30.00S FOG     WCI  20
$$

...SOUTHWEST WISCONSIN...


CITY           SKY/WX    TMP DP  RH WIND       PRES   REMARKS
LA CROSSE      MIX PCPN  36  34  92 NW6       29.90S FOG     WCI  31
PRAIRIE DU CHI CLOUDY    34  33  96 W6        29.90F FOG     WCI  29
BOSCOBEL       CLOUDY    35  33  92 W3        29.89F FOG
LONE ROCK      CLOUDY    36  34  93 W6        29.87F FOG     WCI  31
PLATTEVILLE    CLOUDY    34  34 100 W10       29.88S WCI  26
FORT MC COY    DRIZZLE   33  33 100 CALM      29.90R
CAMP DOUGLAS   DRIZZLE   34  32  93 W5        29.86F FOG     WCI  30
MAUSTON-NEW LI FOG       34  34 100 W3        29.86F VSB 1
VIROQUA        CLOUDY    33  33 100 W5        29.87R VSB 3/4 WCI  28
WIS DELLS      DRZL/FOG  33  33  99 NW3       29.85F VSB 1
$$

...ELSEWHERE IN WISCONSIN...


CITY           SKY/WX    TMP DP  RH WIND       PRES   REMARKS
MILWAUKEE      CLOUDY    39  36  89 NW10      29.82F WCI  32
MADISON        FOG       34  33  96 NW7       29.85F VSB 3/4 WCI  28
GREEN BAY      CLOUDY    36  35  96 N8        29.82F FOG     WCI  30
EAU CLAIRE     CLOUDY    36  36 100 N5        29.90S FOG     WCI  32
BLACK RVR FLS  CLOUDY    35  35 100 NW3       29.88S FOG
MEDFORD        CLOUDY    34  32  92 CALM      29.85S
WAUSAU         CLOUDY    35  33  92 NE6       29.83F FOG     WCI  30
WIS RAPIDS     CLOUDY    35  34  96 N6        29.86S WCI  30
MARSHFIELD     CLOUDY    35  32  88 N6        29.84S FOG     WCI  30
RICE LAKE      CLOUDY    35  30  80 NW3       29.93S
$$

...NORTHEAST IOWA...


CITY           SKY/WX    TMP DP  RH WIND       PRES   REMARKS
WATERLOO       CLOUDY    33  31  92 W10       29.94F FOG     WCI  25
DUBUQUE        CLOUDY    33  33 100 W10       29.89S FOG     WCI  25
DECORAH        CLOUDY    34  34 100 NW7       29.89F FOG     WCI  28
MASON CITY     FOG       31  30  96 NW14      29.96F VSB 1/2 WCI  21
CHARLES CITY   MIX PCPN  32  32 100 NW12      29.94S WCI  23
OELWEIN        FOG       32  32 100 W15       29.92F VSB 1/2 WCI  22
$$

...ELSEWHERE IN IOWA...


CITY           SKY/WX    TMP DP  RH WIND       PRES   REMARKS
DES MOINES     CLOUDY    36  33  89 NW14      30.01F FOG     WCI  27
IOWA CITY      CLOUDY    37  34  89 W12       29.97S WCI  29
FORT DODGE     CLOUDY    34  28  80 CALM      30.01S
MARSHALLTOWN   CLOUDY    33  32  96 W16       29.96F FOG     WCI  23
CEDAR RAPIDS   CLOUDY    34  33  96 W17       29.93F FOG     WCI  23
$$

...NORTHERN ILLINOIS...


CITY           SKY/WX    TMP DP  RH WIND       PRES   REMARKS
CHICAGO-OHARE  CLOUDY    38  36  92 W9        29.85S WCI  31
CHICAGO-MIDWAY CLOUDY    37  36  96 W10       29.86S WCI  30
MOLINE         CLOUDY    37  34  89 W15       29.93R FOG     WCI  28
ROCKFORD       CLOUDY    37  35  92 W9        29.88F FOG     WCI  30
PEORIA         CLOUDY    38  36  92 W14       29.95S WCI  30
$$

NOTE: "FAIR" INDICATES FEW OR NO CLOUDS BELOW 12,000 FEET WITH NO
SIGNIFICANT WEATHER AND/OR OBSTRUCTIONS TO VISIBILITY. WIND
SPEEDS ARE IN MILES-PER-HOUR.




USA.gov is the U.S. government's official web portal to all federal, state and local government web resources and services.